This is the latest recevied weather packets stored in our database for station/object VE3MJM-WX. If no packets are shown the sender has not sent any weather packets the latest 10 day(s).
| Time | Temp. | Humidity | Pressure | Rain* | Wind** | Luminosity | Snow |
|---|---|---|---|---|---|---|---|
| 1777471272 | 7.78° C | 96% | 1007.3 hPa | 0.25 mm | - | - | - |
| 1777470370 | 7.78° C | 96% | 1007.5 hPa | 0 mm | - | - | - |
| 1777469467 | 8.33° C | 93% | 1007.6 hPa | 0.25 mm | - | - | - |
| 1777468565 | 8.33° C | 93% | 1007.1 hPa | 0.25 mm | - | - | - |
| 1777467662 | 8.33° C | 92% | 1007 hPa | 0.25 mm | - | - | - |
| 1777466760 | 8.33° C | 93% | 1007.2 hPa | 0.25 mm | - | - | - |
| 1777465857 | 8.33° C | 91% | 1007.6 hPa | 0 mm | - | - | - |
| 1777464954 | 8.33° C | 91% | 1007.5 hPa | 0 mm | - | - | - |
| 1777464052 | 7.78° C | 94% | 1007.2 hPa | 0 mm | - | - | - |
| 1777463149 | 7.78° C | 93% | 1006.5 hPa | 0 mm | - | - | - |
| 1777462247 | 7.78° C | 93% | 1006.9 hPa | 0 mm | - | - | - |
| 1777461344 | 7.78° C | 93% | 1007.2 hPa | 0 mm | - | - | - |
| 1777460442 | 7.78° C | 92% | 1007.6 hPa | 0 mm | - | - | - |
| 1777459539 | 7.78° C | 91% | 1007.6 hPa | 0 mm | - | - | - |
| 1777458637 | 7.78° C | 92% | 1007.4 hPa | 0 mm | - | - | - |
| 1777457734 | 7.78° C | 92% | 1007.1 hPa | 0 mm | - | - | - |
| 1777456831 | 7.78° C | 93% | 1007.1 hPa | 0 mm | - | - | - |
| 1777455929 | 7.78° C | 93% | 1007.1 hPa | 0 mm | - | - | - |
| 1777455026 | 7.22° C | 92% | 1007.3 hPa | 0 mm | - | - | - |
| 1777454124 | 7.22° C | 94% | 1007.4 hPa | 0 mm | - | - | - |
| 1777453221 | 6.67° C | 95% | 1007.6 hPa | 0 mm | - | - | - |
| 1777452319 | 6.67° C | 94% | 1007.2 hPa | 0 mm | - | - | - |
| 1777451416 | 6.67° C | 92% | 1007.1 hPa | 0 mm | - | - | - |
| 1777450514 | 7.22° C | 91% | 1007.3 hPa | 0 mm | - | - | - |
| 1777449611 | 7.78° C | 91% | 1007.3 hPa | 0 mm | - | - | - |
* Rain latest hour (hover to see other rain measurements)
** Current wind speed in m/s (hover to see current wind gust speed)